When you browse on this site, cookies collect data to enhance your experience and personalize the content and advertising you see.
Visit our Privacy Policy to learn more. By continuing to use the site, you agree to this use of cookies and data.
  • In Romania
  • List of Countries
  • For 7 days
  • Water Temperature
  • Satellite Maps
  • Weather Map
  • Weather Widgets
  • user-avatar
    Login

    Hourly Weather Voskresenka

    Today, 22 May, Wednesday

    Time Temperature Precipitation Wind Pressure Humidity
    00:00 +9°C° 0 mm 2 mps 761 mmHg 62%
    01:00 +9°C° 0 mm 2 mps 761 mmHg 64%
    02:00 +9°C° 0 mm 2 mps 760 mmHg 66%
    03:00 +8°C° 0 mm 2 mps 760 mmHg 66%
    04:00 +10°C° 0 mm 2 mps 760 mmHg 66%
    05:00 +12°C° 0 mm 2 mps 760 mmHg 66%
    06:00 +13°C° 0 mm 2 mps 760 mmHg 66%
    07:00 +14°C° 0 mm 1 mps 759 mmHg 64%
    08:00 +15°C° 0 mm 1 mps 759 mmHg 63%
    09:00 +16°C° 0 mm 1 mps 759 mmHg 61%
    10:00 +15°C° 0.5 mm 1 mps 759 mmHg 66%
    11:00 +15°C° 0.5 mm 2 mps 759 mmHg 70%
    12:00 +15°C° 0.5 mm 2 mps 758 mmHg 75%
    13:00 +16°C° 0.1 mm 2 mps 758 mmHg 70%
    14:00 +18°C° 0.1 mm 3 mps 758 mmHg 65%
    15:00 +20°C° 0.1 mm 3 mps 757 mmHg 60%
    16:00 +19°C° 0.4 mm 3 mps 757 mmHg 66%
    17:00 +18°C° 0.4 mm 4 mps 757 mmHg 72%
    18:00 +18°C° 0.4 mm 4 mps 756 mmHg 78%
    19:00 +17°C° 0.1 mm 4 mps 756 mmHg 81%
    20:00 +16°C° 0.1 mm 3 mps 756 mmHg 83%
    21:00 +14°C° 0.1 mm 3 mps 756 mmHg 86%
    22:00 +14°C° 0.3 mm 3 mps 755 mmHg 87%
    23:00 +14°C° 0.3 mm 3 mps 755 mmHg 89%

    Tomorrow, 23 May, Thursday

    Time Temperature Precipitation Wind Pressure Humidity
    00:00 +13°C° 0.3 mm 3 mps 755 mmHg 91%
    01:00 +13°C° 0 mm 3 mps 755 mmHg 91%
    02:00 +13°C° 0 mm 3 mps 755 mmHg 90%
    03:00 +13°C° 0 mm 3 mps 755 mmHg 90%
    04:00 +14°C° 0 mm 4 mps 755 mmHg 86%
    05:00 +15°C° 0 mm 4 mps 754 mmHg 83%
    06:00 +15°C° 0 mm 4 mps 754 mmHg 79%
    07:00 +17°C° 0 mm 5 mps 754 mmHg 70%
    08:00 +20°C° 0 mm 5 mps 754 mmHg 61%
    09:00 +21°C° 0 mm 6 mps 754 mmHg 53%
    10:00 +22°C° 0 mm 6 mps 753 mmHg 49%
    11:00 +23°C° 0 mm 7 mps 753 mmHg 46%
    12:00 +23°C° 0 mm 7 mps 753 mmHg 43%
    13:00 +23°C° 0 mm 7 mps 752 mmHg 43%
    14:00 +23°C° 0 mm 7 mps 752 mmHg 43%
    15:00 +23°C° 0 mm 7 mps 752 mmHg 43%
    16:00 +22°C° 0 mm 6 mps 751 mmHg 46%
    17:00 +21°C° 0 mm 5 mps 751 mmHg 49%
    18:00 +20°C° 0 mm 5 mps 750 mmHg 52%
    19:00 +19°C° 0 mm 5 mps 750 mmHg 55%
    20:00 +18°C° 0 mm 4 mps 750 mmHg 57%
    21:00 +15°C° 0 mm 4 mps 750 mmHg 60%
    22:00 +15°C° 0 mm 4 mps 750 mmHg 62%
    23:00 +15°C° 0 mm 5 mps 750 mmHg 64%

    Day after tomorrow, 24 May, Friday

    Time Temperature Precipitation Wind Pressure Humidity
    00:00 +15°C° 0 mm 5 mps 749 mmHg 66%
    01:00 +15°C° 0.1 mm 5 mps 749 mmHg 69%
    02:00 +14°C° 0.1 mm 5 mps 749 mmHg 71%
    03:00 +14°C° 0.1 mm 5 mps 749 mmHg 74%
    04:00 +14°C° 0.5 mm 5 mps 749 mmHg 77%
    05:00 +14°C° 0.5 mm 5 mps 749 mmHg 80%
    06:00 +15°C° 0.5 mm 5 mps 749 mmHg 83%
    07:00 +15°C° 0.3 mm 5 mps 750 mmHg 85%
    08:00 +14°C° 0.3 mm 5 mps 750 mmHg 86%
    09:00 +14°C° 0.3 mm 4 mps 750 mmHg 88%
    10:00 +15°C° 0 mm 5 mps 751 mmHg 80%
    11:00 +16°C° 0 mm 5 mps 751 mmHg 72%
    12:00 +19°C° 0 mm 5 mps 752 mmHg 63%
    13:00 +17°C° 0 mm 5 mps 752 mmHg 61%
    14:00 +17°C° 0 mm 5 mps 753 mmHg 59%
    15:00 +17°C° 0 mm 5 mps 753 mmHg 57%
    16:00 +16°C° 0 mm 5 mps 754 mmHg 58%
    17:00 +17°C° 0 mm 4 mps 754 mmHg 59%
    18:00 +15°C° 0 mm 4 mps 755 mmHg 60%
    19:00 +14°C° 0 mm 4 mps 755 mmHg 62%
    20:00 +12°C° 0 mm 3 mps 756 mmHg 64%
    21:00 +11°C° 0 mm 3 mps 757 mmHg 65%
    22:00 +10°C° 0 mm 3 mps 757 mmHg 66%
    23:00 +9°C° 0 mm 3 mps 758 mmHg 66%

    25 May, Saturday

    Time Temperature Precipitation Wind Pressure Humidity
    00:00 +8°C° 0 mm 3 mps 758 mmHg 67%
    01:00 +8°C° 0 mm 2 mps 759 mmHg 67%
    02:00 +7°C° 0 mm 2 mps 759 mmHg 68%
    03:00 +7°C° 0 mm 2 mps 759 mmHg 68%
    04:00 +8°C° 0 mm 2 mps 760 mmHg 65%
    05:00 +8°C° 0 mm 3 mps 760 mmHg 62%
    06:00 +9°C° 0 mm 3 mps 760 mmHg 60%
    07:00 +11°C° 0 mm 3 mps 760 mmHg 55%
    08:00 +12°C° 0 mm 3 mps 761 mmHg 49%
    09:00 +13°C° 0 mm 3 mps 761 mmHg 44%
    10:00 +14°C° 0 mm 3 mps 761 mmHg 43%
    11:00 +16°C° 0 mm 3 mps 760 mmHg 41%
    12:00 +17°C° 0 mm 3 mps 760 mmHg 39%
    13:00 +18°C° 0 mm 3 mps 760 mmHg 39%
    14:00 +18°C° 0 mm 3 mps 760 mmHg 39%
    15:00 +19°C° 0 mm 3 mps 759 mmHg 39%
    16:00 +19°C° 0 mm 3 mps 759 mmHg 43%
    17:00 +18°C° 0 mm 3 mps 759 mmHg 47%
    18:00 +18°C° 0 mm 3 mps 759 mmHg 52%
    19:00 +16°C° 0 mm 3 mps 759 mmHg 54%
    20:00 +14°C° 0 mm 4 mps 759 mmHg 57%
    21:00 +12°C° 0 mm 4 mps 759 mmHg 59%
    22:00 +12°C° 0 mm 4 mps 759 mmHg 58%
    23:00 +12°C° 0 mm 5 mps 759 mmHg 56%

    26 May, Sunday

    Time Temperature Precipitation Wind Pressure Humidity
    00:00 +12°C° 0 mm 5 mps 758 mmHg 55%
    01:00 +12°C° 0.1 mm 5 mps 758 mmHg 57%
    02:00 +10°C° 0.1 mm 5 mps 758 mmHg 59%
    03:00 +10°C° 0.1 mm 5 mps 758 mmHg 61%
    04:00 +10°C° 0 mm 5 mps 757 mmHg 60%
    05:00 +12°C° 0 mm 5 mps 757 mmHg 60%
    06:00 +12°C° 0 mm 5 mps 757 mmHg 59%
    07:00 +13°C° 0.1 mm 5 mps 756 mmHg 60%
    08:00 +14°C° 0.1 mm 6 mps 756 mmHg 60%
    09:00 +15°C° 0.1 mm 6 mps 755 mmHg 61%
    10:00 +17°C° 0 mm 6 mps 755 mmHg 60%
    11:00 +19°C° 0 mm 6 mps 755 mmHg 60%
    12:00 +21°C° 0 mm 7 mps 754 mmHg 59%
    13:00 +21°C° 0 mm 7 mps 754 mmHg 61%
    14:00 +21°C° 0 mm 7 mps 753 mmHg 63%
    15:00 +21°C° 0 mm 7 mps 753 mmHg 65%
    16:00 +21°C° 0 mm 7 mps 753 mmHg 68%
    17:00 +20°C° 0 mm 6 mps 752 mmHg 71%
    18:00 +20°C° 0 mm 6 mps 752 mmHg 74%
    19:00 +19°C° 0.5 mm 5 mps 752 mmHg 77%
    20:00 +17°C° 0.5 mm 5 mps 752 mmHg 81%
    21:00 +17°C° 0.5 mm 5 mps 752 mmHg 84%
    22:00 +16°C° 0.3 mm 5 mps 751 mmHg 85%
    23:00 +16°C° 0.3 mm 5 mps 751 mmHg 86%

    27 May, Monday

    Time Temperature Precipitation Wind Pressure Humidity
    00:00 +16°C° 0.3 mm 5 mps 751 mmHg 86%
    01:00 +16°C° 0 mm 5 mps 751 mmHg 89%
    02:00 +15°C° 0 mm 4 mps 751 mmHg 91%
    03:00 +15°C° 0 mm 4 mps 751 mmHg 93%
    04:00 +15°C° 0.1 mm 4 mps 751 mmHg 91%
    05:00 +17°C° 0.1 mm 4 mps 752 mmHg 89%
    06:00 +17°C° 0.1 mm 4 mps 752 mmHg 87%
    07:00 +19°C° 0.2 mm 5 mps 752 mmHg 81%
    08:00 +21°C° 0.2 mm 6 mps 752 mmHg 74%
    09:00 +23°C° 0.2 mm 7 mps 752 mmHg 68%
    10:00 +23°C° 0.5 mm 7 mps 752 mmHg 65%
    11:00 +24°C° 0.5 mm 7 mps 751 mmHg 63%
    12:00 +26°C° 0.5 mm 7 mps 751 mmHg 61%
    13:00 +24°C° 1.1 mm 7 mps 751 mmHg 62%
    14:00 +24°C° 1.1 mm 6 mps 751 mmHg 64%
    15:00 +24°C° 1.1 mm 6 mps 751 mmHg 66%
    16:00 +25°C° 0.1 mm 5 mps 752 mmHg 67%
    17:00 +23°C° 0.1 mm 5 mps 752 mmHg 67%
    18:00 +23°C° 0.1 mm 4 mps 752 mmHg 68%
    19:00 +22°C° 0 mm 4 mps 752 mmHg 69%
    20:00 +20°C° 0 mm 4 mps 753 mmHg 71%
    21:00 +18°C° 0 mm 4 mps 753 mmHg 73%
    22:00 +18°C° 0 mm 4 mps 753 mmHg 78%
    23:00 +17°C° 0 mm 5 mps 753 mmHg 82%
    Show more